PUA257 SAAR-SULS

Flight info

Callsign PUA257
Flight time 0h 56m
Altitude 37000
Route ROS UW2 GUA UL417 CRR
Aircraft B737/M-SDE2E3FGHIRWXY/LB1

Departure

Time 2026-05-09 17:02
Airport Rosario Islas Malvinas International Airport (SAAR)

Arrival

Time 2026-05-09 17:58
Airport Capitan Corbeta CA Curbelo International Airport (SULS)
Time Latitude Longitude Altitude Speed Heading
2026-05-09 16:33 -32.91665 -60.78113 91 ft 0 kts 111°
2026-05-09 16:51 -32.91663 -60.78120 91 ft 3 kts 110°
2026-05-09 16:51 -32.91657 -60.78141 92 ft 3 kts 98°
2026-05-09 16:51 -32.91659 -60.78164 92 ft 3 kts 60°
2026-05-09 16:52 -32.91672 -60.78180 93 ft 3 kts 22°
2026-05-09 16:52 -32.91681 -60.78184 91 ft 0 kts 21°
2026-05-09 16:55 -32.91680 -60.78184 91 ft 0 kts 21°
2026-05-09 16:55 -32.91664 -60.78176 92 ft 7 kts 21°
2026-05-09 16:55 -32.91590 -60.78141 94 ft 14 kts 21°
2026-05-09 16:56 -32.91496 -60.78110 91 ft 14 kts 348°
2026-05-09 16:56 -32.91419 -60.78172 92 ft 13 kts 323°
2026-05-09 16:56 -32.91347 -60.78238 91 ft 13 kts 320°
2026-05-09 16:56 -32.91280 -60.78305 90 ft 12 kts 320°
2026-05-09 16:57 -32.91212 -60.78368 90 ft 12 kts 322°
2026-05-09 16:57 -32.91159 -60.78416 92 ft 13 kts 322°
2026-05-09 16:57 -32.91102 -60.78467 90 ft 15 kts 326°
2026-05-09 16:57 -32.91005 -60.78525 92 ft 16 kts 337°
2026-05-09 16:58 -32.90890 -60.78569 93 ft 19 kts 351°
2026-05-09 16:58 -32.90746 -60.78557 92 ft 26 kts 10°
2026-05-09 16:58 -32.90527 -60.78507 91 ft 35 kts 10°
2026-05-09 16:58 -32.90283 -60.78453 88 ft 35 kts 11°
2026-05-09 16:59 -32.90055 -60.78402 89 ft 32 kts
2026-05-09 16:59 -32.89846 -60.78356 89 ft 29 kts 10°
2026-05-09 16:59 -32.89651 -60.78315 89 ft 28 kts 11°
2026-05-09 16:59 -32.89469 -60.78272 90 ft 26 kts 12°
2026-05-09 17:00 -32.89299 -60.78232 90 ft 24 kts 11°
2026-05-09 17:00 -32.89155 -60.78198 88 ft 15 kts 11°
2026-05-09 17:00 -32.89093 -60.78153 91 ft 8 kts 47°
2026-05-09 17:00 -32.89061 -60.78141 90 ft 4 kts 320°
2026-05-09 17:01 -32.89067 -60.78173 88 ft 4 kts 216°
2026-05-09 17:01 -32.89105 -60.78183 90 ft 13 kts 192°
2026-05-09 17:01 -32.89456 -60.78267 90 ft 90 kts 190°
2026-05-09 17:01 -32.90297 -60.78462 140 ft 148 kts 194°
2026-05-09 17:02 -32.91376 -60.78666 865 ft 162 kts 193°
2026-05-09 17:02 -32.92481 -60.78896 2028 ft 161 kts 199°
2026-05-09 17:02 -32.93570 -60.79183 2947 ft 162 kts 199°
2026-05-09 17:02 -32.94760 -60.79478 3475 ft 191 kts 198°
2026-05-09 17:03 -32.96140 -60.79802 4013 ft 206 kts 196°
2026-05-09 17:04 -33.04160 -60.75235 10569 ft 293 kts 87°
2026-05-09 17:05 -33.03576 -60.72853 11347 ft 304 kts 73°
2026-05-09 17:05 -33.02785 -60.70498 12160 ft 309 kts 71°
2026-05-09 17:05 -33.01982 -60.68099 12954 ft 314 kts 71°
2026-05-09 17:05 -33.01182 -60.65593 13402 ft 336 kts 72°
2026-05-09 17:06 -33.00345 -60.62871 13640 ft 364 kts 72°
2026-05-09 17:06 -32.99456 -60.59934 13853 ft 390 kts 72°
2026-05-09 17:06 -32.98523 -60.56848 14191 ft 410 kts 72°
2026-05-09 17:06 -32.97547 -60.53624 14876 ft 416 kts 71°
2026-05-09 17:07 -32.96561 -60.50372 15750 ft 419 kts 71°
2026-05-09 17:07 -32.95890 -60.48162 16311 ft 421 kts 71°
2026-05-09 17:07 -32.94560 -60.43776 17367 ft 428 kts 70°
2026-05-09 17:07 -32.93542 -60.40425 18152 ft 433 kts 70°
2026-05-09 17:08 -32.92798 -60.36932 18828 ft 437 kts 87°
2026-05-09 17:08 -32.93116 -60.29760 20469 ft 434 kts 98°
2026-05-09 17:08 -32.93363 -60.26169 21186 ft 437 kts 97°
2026-05-09 17:09 -32.93580 -60.22546 21899 ft 440 kts 96°
2026-05-09 17:09 -32.93775 -60.18901 22642 ft 442 kts 96°
2026-05-09 17:09 -32.93962 -60.15249 23376 ft 443 kts 96°
2026-05-09 17:09 -32.94150 -60.11571 24018 ft 446 kts 96°
2026-05-09 17:10 -32.94339 -60.07871 24570 ft 449 kts 96°
2026-05-09 17:10 -32.94526 -60.04207 25103 ft 451 kts 96°
2026-05-09 17:10 -32.94716 -60.00472 25643 ft 453 kts 96°
2026-05-09 17:10 -32.94906 -59.96713 26168 ft 456 kts 96°
2026-05-09 17:11 -32.95096 -59.92942 26681 ft 458 kts 96°
2026-05-09 17:11 -32.95286 -59.89134 27189 ft 460 kts 96°
2026-05-09 17:11 -32.95476 -59.85313 27698 ft 463 kts 96°
2026-05-09 17:11 -32.95666 -59.81463 28152 ft 466 kts 95°
2026-05-09 17:12 -32.95854 -59.77642 28589 ft 469 kts 95°
2026-05-09 17:12 -32.96044 -59.73758 29037 ft 471 kts 95°
2026-05-09 17:12 -32.96233 -59.69853 29496 ft 473 kts 95°
2026-05-09 17:12 -32.96422 -59.65920 29906 ft 476 kts 95°
2026-05-09 17:13 -32.96611 -59.61971 30287 ft 479 kts 95°
2026-05-09 17:13 -32.96799 -59.58004 30595 ft 482 kts 95°
2026-05-09 17:13 -32.96988 -59.54003 30869 ft 485 kts 95°
2026-05-09 17:13 -32.97177 -59.49973 31148 ft 488 kts 95°
2026-05-09 17:14 -32.97365 -59.45927 31484 ft 489 kts 95°
2026-05-09 17:14 -32.97549 -59.41934 31871 ft 489 kts 94°
2026-05-09 17:14 -32.97735 -59.37891 32270 ft 488 kts 94°
2026-05-09 17:14 -32.97919 -59.33845 32603 ft 490 kts 94°
2026-05-09 17:15 -32.98103 -59.29786 32915 ft 491 kts 94°
2026-05-09 17:15 -32.98285 -59.25731 33270 ft 491 kts 94°
2026-05-09 17:15 -32.98466 -59.21660 33644 ft 491 kts 94°
2026-05-09 17:15 -32.98646 -59.17597 33950 ft 492 kts 94°
2026-05-09 17:16 -32.98826 -59.13514 34234 ft 493 kts 93°
2026-05-09 17:17 -33.00047 -58.84895 36051 ft 495 kts 93°
2026-05-09 17:18 -33.00216 -58.80791 36273 ft 496 kts 92°
2026-05-09 17:18 -33.00383 -58.76739 36527 ft 496 kts 92°
2026-05-09 17:18 -33.00550 -58.72633 36795 ft 496 kts 92°
2026-05-09 17:18 -33.00717 -58.68524 37017 ft 497 kts 93°
2026-05-09 17:19 -33.01203 -58.64454 37140 ft 498 kts 105°
2026-05-09 17:19 -33.02352 -58.60570 37161 ft 496 kts 116°
2026-05-09 17:19 -33.04054 -58.57014 37159 ft 494 kts 128°
2026-05-09 17:19 -33.06236 -58.53872 37184 ft 491 kts 133°
2026-05-09 17:20 -33.10794 -58.47796 37167 ft 492 kts 134°
2026-05-09 17:20 -33.15341 -58.41693 37145 ft 492 kts 133°
2026-05-09 17:21 -33.19842 -58.35529 37135 ft 492 kts 133°
2026-05-09 17:21 -33.24320 -58.29342 37116 ft 492 kts 133°
2026-05-09 17:22 -33.28034 -58.24202 37116 ft 491 kts 133°
2026-05-09 17:22 -33.32501 -58.18015 37115 ft 491 kts 133°
2026-05-09 17:23 -33.36953 -58.11844 37117 ft 490 kts 133°
2026-05-09 17:23 -33.41409 -58.05655 37113 ft 489 kts 133°
2026-05-09 17:25 -33.54675 -57.87162 37113 ft 487 kts 132°
2026-05-09 17:25 -33.59071 -57.80991 37090 ft 487 kts 132°
2026-05-09 17:26 -33.63470 -57.74808 37097 ft 486 kts 132°
2026-05-09 17:26 -33.67857 -57.68632 37090 ft 486 kts 132°
2026-05-09 17:27 -33.72235 -57.62453 37087 ft 485 kts 132°
2026-05-09 17:27 -33.76611 -57.56264 37089 ft 485 kts 132°
2026-05-09 17:28 -33.80980 -57.50075 37076 ft 485 kts 132°
2026-05-09 17:28 -33.85313 -57.43927 37080 ft 485 kts 132°
2026-05-09 17:29 -33.89678 -57.37725 37080 ft 485 kts 132°
2026-05-09 17:29 -33.94055 -57.31517 37079 ft 486 kts 132°
2026-05-09 17:30 -33.98436 -57.25301 37070 ft 486 kts 132°
2026-05-09 17:30 -34.02803 -57.19091 37075 ft 486 kts 132°
2026-05-09 17:31 -34.07150 -57.12896 37066 ft 486 kts 132°
2026-05-09 17:32 -34.17916 -56.97505 37069 ft 486 kts 131°
2026-05-09 17:33 -34.22269 -56.91262 37053 ft 486 kts 131°
2026-05-09 17:33 -34.26600 -56.85041 37054 ft 486 kts 131°
2026-05-09 17:34 -34.30957 -56.78773 37054 ft 487 kts 131°
2026-05-09 17:35 -34.41002 -56.64276 35979 ft 491 kts 131°
2026-05-09 17:35 -34.43097 -56.61245 35281 ft 491 kts 131°
2026-05-09 17:36 -34.45295 -56.58060 34473 ft 491 kts 131°
2026-05-09 17:36 -34.47456 -56.54927 33726 ft 489 kts 131°
2026-05-09 17:36 -34.49625 -56.51780 33032 ft 484 kts 131°
2026-05-09 17:36 -34.51798 -56.48625 31739 ft 492 kts 131°
2026-05-09 17:37 -34.53968 -56.45470 31303 ft 481 kts 131°
2026-05-09 17:37 -34.56098 -56.42365 30414 ft 479 kts 131°
2026-05-09 17:37 -34.57772 -56.39925 29931 ft 474 kts 131°
2026-05-09 17:37 -34.59886 -56.36840 29102 ft 469 kts 131°
2026-05-09 17:38 -34.61958 -56.33814 28434 ft 462 kts 132°
2026-05-09 17:38 -34.64001 -56.30828 27667 ft 455 kts 131°
2026-05-09 17:38 -34.65992 -56.27914 27152 ft 442 kts 132°
2026-05-09 17:39 -34.69849 -56.22264 25933 ft 427 kts 132°
2026-05-09 17:39 -34.71707 -56.19542 25314 ft 421 kts 132°
2026-05-09 17:39 -34.73587 -56.16784 24698 ft 416 kts 133°
2026-05-09 17:39 -34.75397 -56.14128 24115 ft 411 kts 133°
2026-05-09 17:40 -34.77217 -56.11453 23450 ft 408 kts 133°
2026-05-09 17:40 -34.79016 -56.08809 22755 ft 405 kts 133°
2026-05-09 17:40 -34.80800 -56.06178 22108 ft 401 kts 132°
2026-05-09 17:40 -34.82297 -56.03317 21496 ft 402 kts 119°
2026-05-09 17:41 -34.83285 -56.00147 20901 ft 402 kts 108°
2026-05-09 17:41 -34.83743 -55.96784 20302 ft 403 kts 98°
2026-05-09 17:41 -34.83945 -55.93398 19720 ft 399 kts 97°
2026-05-09 17:41 -34.84123 -55.90039 19132 ft 396 kts 97°
2026-05-09 17:42 -34.84298 -55.86700 18541 ft 394 kts 97°
2026-05-09 17:42 -34.84478 -55.83372 17903 ft 393 kts 97°
2026-05-09 17:42 -34.84663 -55.80061 17269 ft 390 kts 97°
2026-05-09 17:42 -34.84851 -55.76784 16679 ft 387 kts 97°
2026-05-09 17:43 -34.85039 -55.73533 16110 ft 384 kts 97°
2026-05-09 17:43 -34.85229 -55.70298 15538 ft 382 kts 97°
2026-05-09 17:43 -34.85416 -55.67114 14977 ft 381 kts 96°
2026-05-09 17:43 -34.85604 -55.63893 14415 ft 380 kts 96°
2026-05-09 17:45 -34.85692 -55.62375 14160 ft 379 kts 96°
2026-05-09 17:45 -34.85826 -55.60085 13765 ft 377 kts 96°
2026-05-09 17:45 -34.86009 -55.56905 13134 ft 376 kts 96°
2026-05-09 17:46 -34.86191 -55.53743 12550 ft 373 kts 96°
2026-05-09 17:46 -34.86369 -55.50634 11976 ft 371 kts 96°
2026-05-09 17:46 -34.86547 -55.47508 11392 ft 369 kts 96°
2026-05-09 17:46 -34.86723 -55.44399 10826 ft 366 kts 95°
2026-05-09 17:47 -34.86896 -55.41328 10504 ft 356 kts 95°
2026-05-09 17:47 -34.87060 -55.38379 10328 ft 342 kts 95°
2026-05-09 17:47 -34.87219 -55.35538 10167 ft 330 kts 96°
2026-05-09 17:47 -34.87371 -55.32806 10021 ft 318 kts 95°
2026-05-09 17:48 -34.87516 -55.30179 9863 ft 306 kts 95°
2026-05-09 17:48 -34.87662 -55.27563 9341 ft 309 kts 96°
2026-05-09 17:48 -34.87806 -55.24961 8948 ft 308 kts 96°
2026-05-09 17:48 -34.87948 -55.22366 8560 ft 305 kts 96°
2026-05-09 17:49 -34.88089 -55.19790 8192 ft 303 kts 97°
2026-05-09 17:49 -34.88229 -55.17239 7822 ft 301 kts 97°
2026-05-09 17:49 -34.88366 -55.14701 7465 ft 299 kts 97°
2026-05-09 17:49 -34.88502 -55.12203 6944 ft 303 kts 97°
2026-05-09 17:50 -34.88640 -55.09644 6519 ft 302 kts 97°
2026-05-09 17:50 -34.88912 -55.04562 5749 ft 298 kts 98°
2026-05-09 17:50 -34.89046 -55.02056 5386 ft 295 kts 98°
2026-05-09 17:51 -34.89177 -54.99570 5054 ft 292 kts 98°
2026-05-09 17:51 -34.89306 -54.97122 4749 ft 287 kts 98°
2026-05-09 17:51 -34.89433 -54.94714 4452 ft 283 kts 98°
2026-05-09 17:51 -34.89471 -54.92334 4127 ft 283 kts 85°
2026-05-09 17:52 -34.88748 -54.90135 3958 ft 278 kts 54°
2026-05-09 17:52 -34.87336 -54.88629 3803 ft 266 kts 23°
2026-05-09 17:52 -34.85621 -54.88067 3664 ft 248 kts 357°
2026-05-09 17:52 -34.83977 -54.88263 3559 ft 229 kts 337°
2026-05-09 17:53 -34.82512 -54.88844 3445 ft 214 kts 324°
2026-05-09 17:53 -34.81508 -54.89971 3287 ft 185 kts 291°
2026-05-09 17:53 -34.81109 -54.91377 3035 ft 169 kts 269°
2026-05-09 17:53 -34.81167 -54.92718 2814 ft 155 kts 251°
2026-05-09 17:54 -34.81462 -54.93937 2585 ft 146 kts 248°
2026-05-09 17:54 -34.81758 -54.95074 2377 ft 135 kts 248°
2026-05-09 17:54 -34.82033 -54.96123 2224 ft 127 kts 248°
2026-05-09 17:54 -34.82304 -54.97149 2076 ft 126 kts 249°
2026-05-09 17:55 -34.82557 -54.98117 1906 ft 115 kts 248°
2026-05-09 17:55 -34.82792 -54.99013 1745 ft 108 kts 248°
2026-05-09 17:55 -34.83021 -54.99883 1625 ft 108 kts 248°
2026-05-09 17:55 -34.83251 -55.00756 1466 ft 108 kts 248°
2026-05-09 17:56 -34.83481 -55.01635 1316 ft 109 kts 249°
2026-05-09 17:56 -34.83715 -55.02524 1170 ft 112 kts 250°
2026-05-09 17:56 -34.83954 -55.03432 1070 ft 116 kts 249°
2026-05-09 17:57 -34.84463 -55.05368 710 ft 119 kts 251°
2026-05-09 17:57 -34.84708 -55.06306 563 ft 117 kts 251°
2026-05-09 17:57 -34.84953 -55.07245 413 ft 116 kts 251°
2026-05-09 17:57 -34.85169 -55.08203 214 ft 117 kts 252°
2026-05-09 17:58 -34.85429 -55.09107 103 ft 115 kts 252°
2026-05-09 17:58 -34.85639 -55.09890 100 ft 69 kts 252°
2026-05-09 17:58 -34.85721 -55.10192 98 ft 12 kts 252°
2026-05-09 17:58 -34.85743 -55.10279 98 ft 8 kts 253°
2026-05-09 17:59 -34.85739 -55.10319 97 ft 4 kts 291°
2026-05-09 17:59 -34.85743 -55.10330 97 ft 1 kts 210°
2026-05-09 17:59 -34.85747 -55.10324 97 ft 1 kts 132°
2026-05-09 17:59 -34.85746 -55.10311 97 ft 2 kts 75°
2026-05-09 18:00 -34.85740 -55.10286 99 ft 4 kts 74°
2026-05-09 18:00 -34.85732 -55.10252 100 ft 5 kts 75°
2026-05-09 18:00 -34.85723 -55.10214 100 ft 5 kts 72°
2026-05-09 18:00 -34.85713 -55.10175 98 ft 6 kts 73°
2026-05-09 18:01 -34.85701 -55.10125 98 ft 6 kts 73°
2026-05-09 18:01 -34.85686 -55.10070 100 ft 8 kts 70°
2026-05-09 18:01 -34.85668 -55.10003 100 ft 9 kts 72°
2026-05-09 18:01 -34.85657 -55.09934 101 ft 8 kts 104°
2026-05-09 18:02 -34.85703 -55.09897 100 ft 8 kts 162°
2026-05-09 18:02 -34.85764 -55.09874 100 ft 11 kts 162°
2026-05-09 18:02 -34.85839 -55.09844 99 ft 11 kts 161°
2026-05-09 18:02 -34.85887 -55.09844 99 ft 7 kts 217°
2026-05-09 18:03 -34.85906 -55.09896 99 ft 7 kts 237°
2026-05-09 18:03 -34.85945 -55.09904 99 ft 2 kts 166°
2026-05-09 18:03 -34.85958 -55.09899 99 ft 2 kts 161°
2026-05-09 18:03 -34.85963 -55.09896 99 ft 0 kts 161°